This is the latest recevied weather packets stored in our database for station/object KK7RJD. If no packets are shown the sender has not sent any weather packets the latest 10 day(s).
| Time | Temp. | Humidity | Pressure | Rain* | Wind** | Luminosity | Snow |
|---|---|---|---|---|---|---|---|
| 1778018915 | 7.78° C | 42% | 1015 hPa | 0 mm | - | 355 W/m² | - |
| 1778018612 | 7.22° C | 42% | 1014.8 hPa | 0 mm | - | 460 W/m² | - |
| 1778018310 | 7.22° C | 43% | 1014.8 hPa | 0 mm | - | 219 W/m² | - |
| 1778018008 | 7.78° C | 41% | 1014.8 hPa | 0 mm | - | 296 W/m² | - |
| 1778017403 | 8.89° C | 35% | 1014.5 hPa | 0 mm | - | 266 W/m² | - |
| 1778017099 | 8.33° C | 35% | 1014.5 hPa | 0 mm | - | 795 W/m² | - |
| 1778016493 | 7.22° C | 40% | 1014.5 hPa | 0 mm | - | 566 W/m² | - |
| 1778016190 | 7.78° C | 42% | 1014.6 hPa | 0 mm | - | 216 W/m² | - |
| 1778015584 | 7.78° C | 36% | 1014.6 hPa | 0 mm | - | 295 W/m² | - |
| 1778014373 | 7.22° C | 40% | 1014.8 hPa | 0 mm | - | 265 W/m² | - |
| 1778013767 | 6.67° C | 43% | 1014.9 hPa | 0 mm | - | 291 W/m² | - |
| 1778013464 | 7.78° C | 42% | 1014.9 hPa | 0 mm | - | 277 W/m² | - |
| 1778013161 | 7.78° C | 42% | 1014.8 hPa | 0 mm | - | 289 W/m² | - |
| 1778012856 | 7.78° C | 40% | 1015 hPa | 0 mm | - | 335 W/m² | - |
| 1778012553 | 7.78° C | 42% | 1015 hPa | 0 mm | - | 273 W/m² | - |
| 1778012249 | 7.22° C | 43% | 1014.8 hPa | 0 mm | - | 202 W/m² | - |
| 1778011947 | 7.78° C | 43% | 1015.1 hPa | 0 mm | - | 308 W/m² | - |
| 1778011645 | 7.22° C | 41% | 1015.1 hPa | 0 mm | - | 431 W/m² | - |
| 1778011342 | 7.22° C | 41% | 1015.1 hPa | 0 mm | - | 385 W/m² | - |
| 1778011037 | 7.78° C | 43% | 1015.3 hPa | 0 mm | - | 494 W/m² | - |
| 1778010129 | 7.78° C | 44% | 1015.1 hPa | 0 mm | - | 1155 W/m² | - |
| 1778009825 | 7.78° C | 43% | 1015.1 hPa | 0 mm | - | 1156 W/m² | - |
| 1778009522 | 7.22° C | 42% | 1015.2 hPa | 0 mm | - | 845 W/m² | - |
| 1778009221 | 7.78° C | 44% | 1015.2 hPa | 0 mm | - | 290 W/m² | - |
| 1778008918 | 7.78° C | 44% | 1015.1 hPa | 0 mm | - | 446 W/m² | - |
* Rain latest hour (hover to see other rain measurements)
** Current wind speed in m/s (hover to see current wind gust speed)